Ukiah, CA

10:56 PM PDT on March 23, 2017 (GMT -0700)
Ukiah Municipal

Weather History for KUKI - December, 2013

Change the Weather History Date:

Saturday, December 7, 2013

  Actual Average Record
Temperature  
Mean Temperature 34 °F 46 °F  
Max Temperature 43 °F 56 °F 76 °F (1912)
Min Temperature 25 °F 36 °F 22 °F (1971)
Degree Days  
Heating Degree Days 31 19  
Month to date heating degree days 171 131  
Since 1 July heating degree days 696 754  
Cooling Degree Days 0 0  
Month to date cooling degree days 0 0  
Year to date cooling degree days 974 835  
Moisture  
Dew Point 27 °F    
Average Humidity 70    
Maximum Humidity 100    
Minimum Humidity 39    
Precipitation  
Precipitation 0.00 in 0.19 in 2.59 in (1952)
Month to date precipitation 0.49 1.16  
Year to date precipitation 7.50 31.56  
Since 1 July precipitation 1.92  
Snow  
Snow 0.00 in - - ()
Month to date snowfall 0.0  
Since 1 July snowfall 0.0  
Snow Depth 0.00 in    
Sea Level Pressure  
Sea Level Pressure 30.06 in    
Wind  
Wind Speed 5 mph (NNW)    
Max Wind Speed 22 mph    
Max Gust Speed 29 mph    
Visibility 6 miles    
Events Fog    
T = Trace of Precipitation, MM = Missing Value Source: NWS Daily Summary

Daily Weather History Graph

Daily Weather History Graph

Search for Another Location

Airport or City:

Trip Planner

Search our weather history database for the weather conditions in past years. The results will help you decide how hot, cold, wet, or windy it might be!

Date:

Astronomy

Dec. 07, 2013 Rise Set
Actual Time 7:18 AM PST 4:49 PM PST
Civil Twilight 6:49 AM PST 5:19 PM PST
Nautical Twilight 6:15 AM PST 5:53 PM PST
Astronomical Twilight 5:43 AM PST 6:25 PM PST
Moon 11:09 AM PST (12/7) 10:36 PM PST (12/7)
Length of Visible Light 10h 30m
Length of Day
9h 30m
Waxing Crescent, 30% of the Moon is Illuminated
Dec 7
Waxing Crescent
Dec 9
First Quarter
Dec 17
Full
Dec 25
Last Quarter
Jan 1
New

Hourly Weather History & Observations

Time (PST) Temp. Windchill Dew Point Humidity Pressure Visibility Wind Dir Wind Speed Gust Speed Precip Events Conditions
12:00 AM 34.0 °F - 32.0 °F 92% 29.95 in 1.8 mi Calm Calm - N/A   Mostly Cloudy
12:10 AM 33.1 °F - 32.0 °F 96% 29.95 in 2.0 mi Calm Calm - N/A   Mostly Cloudy
12:14 AM 33.1 °F - 32.0 °F 96% 29.94 in 3.0 mi Calm Calm - N/A   Mostly Cloudy
12:25 AM 33.1 °F - 32.0 °F 96% 29.94 in 3.0 mi Calm Calm - N/A   Scattered Clouds
12:30 AM 32.0 °F - 30.9 °F 96% 29.95 in 1.8 mi Calm Calm - N/A   Scattered Clouds
12:33 AM 32.0 °F - 30.9 °F 96% 29.94 in 0.8 mi Calm Calm - N/A   Mist
12:56 AM 33.1 °F - 32.0 °F 96% 29.95 in 0.2 mi Calm Calm - N/A Fog Fog
1:56 AM 30.9 °F - 30.9 °F 100% 29.97 in 0.2 mi Calm Calm - N/A Fog Light Freezing Fog
2:29 AM 30.9 °F - 30.0 °F 96% 29.97 in 0.2 mi Calm Calm - N/A Fog Light Freezing Fog
2:51 AM 30.2 °F - 30.2 °F 100% 29.98 in 0.2 mi Calm Calm - N/A Fog Light Freezing Fog
2:56 AM 30.0 °F - 30.0 °F 100% 29.98 in 0.2 mi Calm Calm - N/A Fog Light Freezing Fog
3:52 AM 28.4 °F - 28.4 °F 100% 29.98 in 0.2 mi Calm Calm - N/A Fog Light Freezing Fog
3:56 AM 28.9 °F - 28.0 °F 96% 29.99 in 0.2 mi Calm Calm - N/A Fog Light Freezing Fog
4:07 AM 28.9 °F - 28.0 °F 96% 29.98 in 0.5 mi Calm Calm - N/A Fog Light Freezing Fog
4:18 AM 28.9 °F - 28.0 °F 96% 29.98 in 1.2 mi Calm Calm - N/A   Mostly Cloudy
4:28 AM 30.0 °F - 28.0 °F 92% 29.98 in 1.5 mi Calm Calm - N/A   Overcast
4:33 AM 30.0 °F - 28.9 °F 96% 29.98 in 3.0 mi Calm Calm - N/A   Mostly Cloudy
4:56 AM 30.9 °F - 28.0 °F 89% 29.99 in 8.0 mi North - - N/A   Partly Cloudy
5:56 AM 30.9 °F 25.2 °F 28.0 °F 89% 30.00 in 10.0 mi North 5.8 mph - N/A   Clear
6:56 AM 32.0 °F 25.6 °F 28.0 °F 85% 30.02 in 10.0 mi NNW 6.9 mph - N/A   Clear
7:56 AM 30.0 °F 24.1 °F 27.0 °F 88% 30.06 in 10.0 mi North 5.8 mph - N/A   Partly Cloudy
8:56 AM 36.0 °F 28.5 °F 28.0 °F 73% 30.09 in 10.0 mi NNW 10.4 mph - N/A   Clear
9:56 AM 39.0 °F 30.3 °F 24.1 °F 55% 30.11 in 10.0 mi NNW 16.1 mph 24.2 mph N/A   Clear
10:56 AM 39.9 °F 31.4 °F 23.0 °F 51% 30.11 in 10.0 mi NNW 16.1 mph 27.6 mph N/A   Clear
11:56 AM 39.9 °F 34.5 °F 24.1 °F 53% 30.10 in 10.0 mi North 8.1 mph - N/A   Scattered Clouds
12:56 PM 39.9 °F 32.1 °F 21.0 °F 47% 30.10 in 10.0 mi NNW 13.8 mph - N/A   Scattered Clouds
1:56 PM 43.0 °F 38.2 °F 21.9 °F 43% 30.10 in 10.0 mi North 8.1 mph - N/A   Mostly Cloudy
2:56 PM 42.1 °F 36.1 °F 19.9 °F 41% 30.12 in 10.0 mi North 10.4 mph - N/A   Mostly Cloudy
3:56 PM 41.0 °F 36.4 °F 21.0 °F 45% 30.16 in 10.0 mi NNW 6.9 mph - N/A   Scattered Clouds
4:56 PM 37.9 °F 33.5 °F 21.0 °F 51% 30.17 in 10.0 mi NW 5.8 mph - N/A   Mostly Cloudy
5:56 PM 36.0 °F - 21.9 °F 57% 30.17 in 10.0 mi Calm Calm - N/A   Clear
6:56 PM 30.9 °F - 24.1 °F 76% 30.20 in 9.0 mi Calm Calm - N/A   Clear
7:56 PM 30.0 °F 26.5 °F 23.0 °F 75% 30.22 in 9.0 mi WNW 3.5 mph - N/A   Clear
8:56 PM 28.0 °F 22.8 °F 23.0 °F 81% 30.22 in 9.0 mi NNW 4.6 mph - N/A   Clear
9:56 PM 27.0 °F - 23.0 °F 85% 30.24 in 10.0 mi Calm Calm - N/A   Clear
10:56 PM 26.1 °F - 23.0 °F 88% 30.27 in 10.0 mi Calm Calm - N/A   Clear
11:56 PM 25.0 °F - 21.9 °F 88% 30.28 in 8.0 mi Calm Calm - N/A   Clear